User: anonymous   Login
Location: Unspecified
(0.0000°N, 0.0000°E)
Time: 21:54:40
(UTC+00:00)
Language:

KORONAS-FOTON - Orbit

View from above orbital plane
View from above orbital plane
View from above satellite
View from above satellite

Ground track
Ground track

The orbit data is extracted from the following two-line orbital elements,

1 33504U 09003A   19079.90746811 +.00000217 +00000-0 +97221-5 0  9995
2 33504 082.4422 315.0046 0020516 054.2608 306.0529 15.15362161558540
Epoch (UTC): 20 March 2019 21:46:45
Eccentricity: 0.0020516
inclination: 82.4422°
perigee height: 506 km
apogee height: 534 km
right ascension of ascending node: 315.0046°
argument of perigee: 54.2608°
revolutions per day: 15.15362161
mean anomaly at epoch: 306.0529°
orbit number at epoch: 55854

The dashed part of the orbit path shows where the satellite is in the earth's shadow,  

DLR